User: anonymous   Login
Location: Unspecified
(0.0000°N, 0.0000°E)
Time: 10:34:07
(UTC+00:00)
Language:

AIST 2D - Orbit

View from above orbital plane
View from above orbital plane
View from above satellite
View from above satellite

Ground track
Ground track

The orbit data is extracted from the following two-line orbital elements,

1 41465U 16026B   18173.73836160  .00001539  00000-0  51021-4 0  9990
2 41465  97.2217  73.1991 0011194 345.7595  98.8098 15.32731675120199
Epoch (UTC): 22 June 2018 17:43:14
Eccentricity: 0.0011194
inclination: 97.2217°
perigee height: 460 km
apogee height: 475 km
right ascension of ascending node: 73.1991°
argument of perigee: 345.7595°
revolutions per day: 15.32731675
mean anomaly at epoch: 98.8098°
orbit number at epoch: 12019

The dashed part of the orbit path shows where the satellite is in the earth's shadow,  

DLR